Location: Leo
(52.0556°N, 112.3605°W)
Time: 10:21:37
(UTC+00:00)

FO-29 - Pass Details

Date: 30 November 2023
Orbit: 799 x 1322 km, 98.6° (Epoch: 01 March)

Event Time Altitude Azimuth Distance (km) Brightness Sun altitude
Rises 13:46:57 0° 10° (N) 3,964 12.6 -12.7°
Reaches altitude 10° 13:51:13 10° 345° (NNW) 3,112 11.8 -12.0°
Maximum altitude 13:54:02 13° 321° (NW) 2,964 11.5 -11.6°
Enters shadow 13:55:25 12° 310° (NW) 3,042 11.5 -11.4°
